iso_date,epoch_date,Year,Hour,Min,DOY,POS_DOY,Lat,Lon,BP,Ts,Ta,has_bp,has_ts,has_ta,BuoyID,Buoy_Type,Buoy_Owner,Logistics,Hemisphere
2014-09-02T00:30:14Z,1409617814,2014,0,30,245.021,245.021,60.0094,-168.005,1012.6,13.64,-999.0,yes,yes,no,300234060235320,UPTEMPO,PSC-UPTEMPO,Mirai,North
2014-09-02T00:34:33Z,1409618074,2014,0,34,245.024,245.024,60.0258,-168.0104,1012.5,12.72,-999.0,yes,yes,no,300234060235320,UPTEMPO,PSC-UPTEMPO,Mirai,North
2014-09-02T00:40:19Z,1409618419,2014,0,40,245.028,245.028,60.0422,-168.016,1012.5,12.16,-999.0,yes,yes,no,300234060235320,UPTEMPO,PSC-UPTEMPO,Mirai,North
2014-09-02T00:44:38Z,1409618678,2014,0,45,245.031,245.031,60.0586,-168.0216,1012.6,11.92,-999.0,yes,yes,no,300234060235320,UPTEMPO,PSC-UPTEMPO,Mirai,North
2014-09-02T00:48:57Z,1409618938,2014,0,49,245.034,245.034,60.075,-168.0262,1012.5,11.72,-999.0,yes,yes,no,300234060235320,UPTEMPO,PSC-UPTEMPO,Mirai,North
2014-09-02T00:54:43Z,1409619283,2014,0,55,245.038,245.038,60.0916,-168.0258,1012.4,11.76,-999.0,yes,yes,no,300234060235320,UPTEMPO,PSC-UPTEMPO,Mirai,North
2014-09-02T01:00:28Z,1409619629,2014,1,0,245.042,245.042,60.108,-168.0236,1012.3,11.8,-999.0,yes,yes,no,300234060235320,UPTEMPO,PSC-UPTEMPO,Mirai,North
2014-09-02T01:03:21Z,1409619802,2014,1,4,245.044,245.044,60.1248,-168.0206,1012.2,11.8,-999.0,yes,yes,no,300234060235320,UPTEMPO,PSC-UPTEMPO,Mirai,North
2014-09-02T01:10:33Z,1409620234,2014,1,10,245.049,245.049,60.1414,-168.0176,1012.2,11.82,-999.0,yes,yes,no,300234060235320,UPTEMPO,PSC-UPTEMPO,Mirai,North
2014-09-02T01:14:52Z,1409620493,2014,1,15,245.052,245.052,60.1582,-168.0148,1012.2,11.8,-999.0,yes,yes,no,300234060235320,UPTEMPO,PSC-UPTEMPO,Mirai,North
2014-09-02T01:20:38Z,1409620838,2014,1,21,245.056,245.056,60.181,-168.0112,1012.0,11.8,-999.0,yes,yes,no,300234060235320,UPTEMPO,PSC-UPTEMPO,Mirai,North
2014-09-02T01:59:31Z,1409623171,2014,2,0,245.083,245.083,60.3124,-167.9688,1011.5,11.68,-999.0,yes,yes,no,300234060235320,UPTEMPO,PSC-UPTEMPO,Mirai,North
2014-09-02T03:00:00Z,1409626800,2014,3,0,245.125,245.125,60.509,-167.8766,1011.3,11.6,-999.0,yes,yes,no,300234060235320,UPTEMPO,PSC-UPTEMPO,Mirai,North
2014-09-02T04:00:28Z,1409630429,2014,4,0,245.167,245.167,60.709,-167.801,1011.1,11.48,-999.0,yes,yes,no,300234060235320,UPTEMPO,PSC-UPTEMPO,Mirai,North
2014-09-02T04:59:31Z,1409633971,2014,5,0,245.208,245.208,60.91,-167.722,1010.7,11.38,-999.0,yes,yes,no,300234060235320,UPTEMPO,PSC-UPTEMPO,Mirai,North
2014-09-02T06:00:00Z,1409637600,2014,6,0,245.25,245.25,61.1118,-167.6486,1010.8,11.16,-999.0,yes,yes,no,300234060235320,UPTEMPO,PSC-UPTEMPO,Mirai,North
2014-09-02T07:00:28Z,1409641229,2014,7,0,245.292,245.292,61.3136,-167.5582,1011.1,11.26,-999.0,yes,yes,no,300234060235320,UPTEMPO,PSC-UPTEMPO,Mirai,North
2014-09-02T07:59:31Z,1409644771,2014,8,0,245.333,245.333,61.5156,-167.4774,1011.6,10.76,-999.0,yes,yes,no,300234060235320,UPTEMPO,PSC-UPTEMPO,Mirai,North
2014-09-02T09:00:00Z,1409648400,2014,9,0,245.375,245.375,61.7168,-167.3938,1012.3,10.24,-999.0,yes,yes,no,300234060235320,UPTEMPO,PSC-UPTEMPO,Mirai,North
2014-09-02T10:00:28Z,1409652029,2014,10,0,245.417,245.417,61.9204,-167.364,1013.0,9.96,-999.0,yes,yes,no,300234060235320,UPTEMPO,PSC-UPTEMPO,Mirai,North
2014-09-02T10:59:31Z,1409655571,2014,11,0,245.458,245.458,62.1252,-167.3698,1013.5,9.84,-999.0,yes,yes,no,300234060235320,UPTEMPO,PSC-UPTEMPO,Mirai,North
2014-09-02T12:00:00Z,1409659200,2014,12,0,245.5,245.5,62.317,-167.3256,1013.9,9.02,-999.0,yes,yes,no,300234060235320,UPTEMPO,PSC-UPTEMPO,Mirai,North
2014-09-02T13:00:28Z,1409662829,2014,13,0,245.542,245.542,62.5212,-167.3464,1014.2,8.28,-999.0,yes,yes,no,300234060235320,UPTEMPO,PSC-UPTEMPO,Mirai,North
2014-09-02T13:59:31Z,1409666371,2014,14,0,245.583,245.583,62.7272,-167.3436,1014.4,7.48,-999.0,yes,yes,no,300234060235320,UPTEMPO,PSC-UPTEMPO,Mirai,North
2014-09-02T15:00:00Z,1409670000,2014,15,0,245.625,245.625,62.932,-167.3768,1014.7,7.28,-999.0,yes,yes,no,300234060235320,UPTEMPO,PSC-UPTEMPO,Mirai,North
2014-09-02T16:00:28Z,1409673629,2014,16,0,245.667,245.667,63.1346,-167.5008,1014.8,7.16,-999.0,yes,yes,no,300234060235320,UPTEMPO,PSC-UPTEMPO,Mirai,North
2014-09-02T16:59:31Z,1409677171,2014,17,0,245.708,245.708,63.3388,-167.6272,1014.8,7.36,-999.0,yes,yes,no,300234060235320,UPTEMPO,PSC-UPTEMPO,Mirai,North
2014-09-02T18:00:00Z,1409680800,2014,18,0,245.75,245.75,63.5436,-167.7568,1015.0,7.92,-999.0,yes,yes,no,300234060235320,UPTEMPO,PSC-UPTEMPO,Mirai,North
2014-09-14T10:22:04Z,1410690125,2014,10,22,257.432,257.432,74.5432,-162.5216,1020.2,6.08,-999.0,yes,yes,no,300234060235320,UPTEMPO,PSC-UPTEMPO,Mirai,North
2014-09-14T10:26:24Z,1410690384,2014,10,27,257.435,257.435,74.5478,-162.5074,1020.3,4.24,-999.0,yes,yes,no,300234060235320,UPTEMPO,PSC-UPTEMPO,Mirai,North
2014-09-14T10:30:43Z,1410690643,2014,10,31,257.438,257.438,74.5498,-162.505,1020.3,3.18,-999.0,yes,yes,no,300234060235320,UPTEMPO,PSC-UPTEMPO,Mirai,North
2014-09-14T10:36:28Z,1410690989,2014,10,37,257.442,257.442,74.5502,-162.5066,1020.9,1.44,-999.0,yes,yes,no,300234060235320,UPTEMPO,PSC-UPTEMPO,Mirai,North
2014-09-14T10:42:14Z,1410691334,2014,10,42,257.446,257.446,74.5506,-162.508,1021.1,1.44,-999.0,yes,yes,no,300234060235320,UPTEMPO,PSC-UPTEMPO,Mirai,North
2014-09-14T10:46:33Z,1410691594,2014,10,46,257.449,257.449,74.551,-162.5094,1021.1,1.44,-999.0,yes,yes,no,300234060235320,UPTEMPO,PSC-UPTEMPO,Mirai,North
2014-09-14T10:52:19Z,1410691939,2014,10,52,257.453,257.453,74.5512,-162.5108,1020.9,1.44,-999.0,yes,yes,no,300234060235320,UPTEMPO,PSC-UPTEMPO,Mirai,North
2014-09-14T10:56:38Z,1410692198,2014,10,57,257.456,257.456,74.5516,-162.5122,1021.0,1.44,-999.0,yes,yes,no,300234060235320,UPTEMPO,PSC-UPTEMPO,Mirai,North
2014-09-14T11:00:57Z,1410692458,2014,11,1,257.459,257.459,74.552,-162.5134,1021.0,1.44,-999.0,yes,yes,no,300234060235320,UPTEMPO,PSC-UPTEMPO,Mirai,North
2014-09-14T11:06:43Z,1410692803,2014,11,7,257.463,257.463,74.5524,-162.5148,1021.0,1.44,-999.0,yes,yes,no,300234060235320,UPTEMPO,PSC-UPTEMPO,Mirai,North
2014-09-14T11:12:28Z,1410693149,2014,11,13,257.467,257.467,74.553,-162.5166,1020.8,1.36,-999.0,yes,yes,no,300234060235320,UPTEMPO,PSC-UPTEMPO,Mirai,North
2014-09-14T12:00:00Z,1410696000,2014,12,0,257.5,257.5,74.557,-162.5292,1020.8,1.28,-999.0,yes,yes,no,300234060235320,UPTEMPO,PSC-UPTEMPO,Mirai,North
2014-09-14T13:00:28Z,1410699629,2014,13,0,257.542,257.542,74.5624,-162.5428,1020.4,1.24,-999.0,yes,yes,no,300234060235320,UPTEMPO,PSC-UPTEMPO,Mirai,North
2014-09-14T13:59:31Z,1410703171,2014,14,0,257.583,257.583,74.5678,-162.5538,1020.0,1.24,-999.0,yes,yes,no,300234060235320,UPTEMPO,PSC-UPTEMPO,Mirai,North
2014-09-14T15:00:00Z,1410706800,2014,15,0,257.625,257.625,74.573,-162.5606,1019.8,1.16,-999.0,yes,yes,no,300234060235320,UPTEMPO,PSC-UPTEMPO,Mirai,North
2014-09-14T16:00:28Z,1410710429,2014,16,0,257.667,257.667,74.5774,-162.5644,1019.8,1.24,-999.0,yes,yes,no,300234060235320,UPTEMPO,PSC-UPTEMPO,Mirai,North
2014-09-14T16:59:31Z,1410713971,2014,17,0,257.708,257.708,74.5814,-162.5676,1019.8,1.16,-999.0,yes,yes,no,300234060235320,UPTEMPO,PSC-UPTEMPO,Mirai,North
2014-09-14T18:00:00Z,1410717600,2014,18,0,257.75,257.75,74.5852,-162.5724,1019.9,1.12,-999.0,yes,yes,no,300234060235320,UPTEMPO,PSC-UPTEMPO,Mirai,North
2014-09-14T19:00:28Z,1410721229,2014,19,0,257.792,257.792,74.5888,-162.5802,1020.1,1.16,-999.0,yes,yes,no,300234060235320,UPTEMPO,PSC-UPTEMPO,Mirai,North
2014-09-14T19:59:31Z,1410724771,2014,20,0,257.833,257.833,74.5922,-162.5898,1020.0,1.14,-999.0,yes,yes,no,300234060235320,UPTEMPO,PSC-UPTEMPO,Mirai,North
2014-09-14T21:00:00Z,1410728400,2014,21,0,257.875,257.875,74.5954,-162.6008,1019.8,1.16,-999.0,yes,yes,no,300234060235320,UPTEMPO,PSC-UPTEMPO,Mirai,North
2014-09-14T22:00:28Z,1410732029,2014,22,0,257.917,257.917,74.599,-162.6134,1019.5,1.16,-999.0,yes,yes,no,300234060235320,UPTEMPO,PSC-UPTEMPO,Mirai,North
2014-09-15T00:00:00Z,1410739200,2014,0,0,258.0,258.0,74.6076,-162.64,1019.4,1.24,-999.0,yes,yes,no,300234060235320,UPTEMPO,PSC-UPTEMPO,Mirai,North
2014-09-15T01:00:28Z,1410742829,2014,1,0,258.042,258.042,74.6122,-162.653,1019.3,1.36,-999.0,yes,yes,no,300234060235320,UPTEMPO,PSC-UPTEMPO,Mirai,North
2014-09-15T01:59:31Z,1410746371,2014,2,0,258.083,258.083,74.6168,-162.6646,1019.2,1.4,-999.0,yes,yes,no,300234060235320,UPTEMPO,PSC-UPTEMPO,Mirai,North
2014-09-15T03:00:00Z,1410750000,2014,3,0,258.125,258.125,74.6218,-162.6732,1019.0,1.44,-999.0,yes,yes,no,300234060235320,UPTEMPO,PSC-UPTEMPO,Mirai,North
2014-09-15T04:00:28Z,1410753629,2014,4,0,258.167,258.167,74.6268,-162.6798,1018.7,1.44,-999.0,yes,yes,no,300234060235320,UPTEMPO,PSC-UPTEMPO,Mirai,North
2014-09-15T04:59:31Z,1410757171,2014,5,0,258.208,258.208,74.6314,-162.6842,1018.5,1.48,-999.0,yes,yes,no,300234060235320,UPTEMPO,PSC-UPTEMPO,Mirai,North
2014-09-15T06:00:00Z,1410760800,2014,6,0,258.25,258.25,74.6352,-162.6866,1018.5,1.48,-999.0,yes,yes,no,300234060235320,UPTEMPO,PSC-UPTEMPO,Mirai,North
2014-09-15T07:00:28Z,1410764429,2014,7,0,258.292,258.292,74.6382,-162.6872,1018.8,1.48,-999.0,yes,yes,no,300234060235320,UPTEMPO,PSC-UPTEMPO,Mirai,North
2014-09-15T07:59:31Z,1410767971,2014,8,0,258.333,258.333,74.6398,-162.6908,1018.8,1.48,-999.0,yes,yes,no,300234060235320,UPTEMPO,PSC-UPTEMPO,Mirai,North
2014-09-15T09:00:00Z,1410771600,2014,9,0,258.375,258.375,74.6416,-162.6982,1019.1,1.48,-999.0,yes,yes,no,300234060235320,UPTEMPO,PSC-UPTEMPO,Mirai,North
2014-09-15T10:00:28Z,1410775229,2014,10,0,258.417,258.417,74.6438,-162.7082,1019.0,1.48,-999.0,yes,yes,no,300234060235320,UPTEMPO,PSC-UPTEMPO,Mirai,North
2014-09-15T10:59:31Z,1410778771,2014,11,0,258.458,258.458,74.6462,-162.7194,1018.7,1.46,-999.0,yes,yes,no,300234060235320,UPTEMPO,PSC-UPTEMPO,Mirai,North
2014-09-15T12:00:00Z,1410782400,2014,12,0,258.5,258.5,74.6492,-162.7308,1018.3,1.44,-999.0,yes,yes,no,300234060235320,UPTEMPO,PSC-UPTEMPO,Mirai,North
2014-09-15T13:00:28Z,1410786029,2014,13,0,258.542,258.542,74.6522,-162.7424,1018.3,1.44,-999.0,yes,yes,no,300234060235320,UPTEMPO,PSC-UPTEMPO,Mirai,North
2014-09-15T13:59:31Z,1410789571,2014,14,0,258.583,258.583,74.6556,-162.753,1017.9,1.44,-999.0,yes,yes,no,300234060235320,UPTEMPO,PSC-UPTEMPO,Mirai,North
2014-09-15T15:00:00Z,1410793200,2014,15,0,258.625,258.625,74.659,-162.763,1017.7,1.4,-999.0,yes,yes,no,300234060235320,UPTEMPO,PSC-UPTEMPO,Mirai,North
2014-09-15T16:00:28Z,1410796829,2014,16,0,258.667,258.667,74.6624,-162.7704,1017.6,1.36,-999.0,yes,yes,no,300234060235320,UPTEMPO,PSC-UPTEMPO,Mirai,North
2014-09-15T16:59:31Z,1410800371,2014,17,0,258.708,258.708,74.665,-162.7768,1017.3,1.36,-999.0,yes,yes,no,300234060235320,UPTEMPO,PSC-UPTEMPO,Mirai,North
2014-09-15T18:00:00Z,1410804000,2014,18,0,258.75,258.75,74.667,-162.7836,1017.3,1.36,-999.0,yes,yes,no,300234060235320,UPTEMPO,PSC-UPTEMPO,Mirai,North
2014-09-15T19:00:28Z,1410807629,2014,19,0,258.792,258.792,74.6686,-162.793,1017.2,1.36,-999.0,yes,yes,no,300234060235320,UPTEMPO,PSC-UPTEMPO,Mirai,North
2014-09-15T19:59:31Z,1410811171,2014,20,0,258.833,258.833,74.67,-162.804,1017.2,1.28,-999.0,yes,yes,no,300234060235320,UPTEMPO,PSC-UPTEMPO,Mirai,North
2014-09-15T21:00:00Z,1410814800,2014,21,0,258.875,258.875,74.6718,-162.8152,1017.2,1.36,-999.0,yes,yes,no,300234060235320,UPTEMPO,PSC-UPTEMPO,Mirai,North
2014-09-15T22:00:28Z,1410818429,2014,22,0,258.917,258.917,74.674,-162.8278,1017.1,1.36,-999.0,yes,yes,no,300234060235320,UPTEMPO,PSC-UPTEMPO,Mirai,North
2014-09-15T22:59:31Z,1410821971,2014,23,0,258.958,258.958,74.6768,-162.8416,1016.8,1.4,-999.0,yes,yes,no,300234060235320,UPTEMPO,PSC-UPTEMPO,Mirai,North
2014-09-16T00:00:00Z,1410825600,2014,0,0,259.0,259.0,74.6798,-162.8552,1016.4,1.36,-999.0,yes,yes,no,300234060235320,UPTEMPO,PSC-UPTEMPO,Mirai,North
2014-09-16T01:00:28Z,1410829229,2014,1,0,259.042,259.042,74.6832,-162.869,1016.2,1.36,-999.0,yes,yes,no,300234060235320,UPTEMPO,PSC-UPTEMPO,Mirai,North
2014-09-16T01:59:31Z,1410832771,2014,2,0,259.083,259.083,74.687,-162.882,1016.4,1.36,-999.0,yes,yes,no,300234060235320,UPTEMPO,PSC-UPTEMPO,Mirai,North
2014-09-16T03:00:00Z,1410836400,2014,3,0,259.125,259.125,74.6908,-162.8926,1016.1,1.28,-999.0,yes,yes,no,300234060235320,UPTEMPO,PSC-UPTEMPO,Mirai,North
2014-09-16T04:00:28Z,1410840029,2014,4,0,259.167,259.167,74.6942,-162.902,1015.9,1.26,-999.0,yes,yes,no,300234060235320,UPTEMPO,PSC-UPTEMPO,Mirai,North
2014-09-16T04:59:31Z,1410843571,2014,5,0,259.208,259.208,74.6968,-162.9126,1015.8,1.26,-999.0,yes,yes,no,300234060235320,UPTEMPO,PSC-UPTEMPO,Mirai,North
2014-09-16T06:00:00Z,1410847200,2014,6,0,259.25,259.25,74.6988,-162.9238,1015.7,1.28,-999.0,yes,yes,no,300234060235320,UPTEMPO,PSC-UPTEMPO,Mirai,North
2014-09-16T07:00:28Z,1410850829,2014,7,0,259.292,259.292,74.7014,-162.9362,1015.3,1.36,-999.0,yes,yes,no,300234060235320,UPTEMPO,PSC-UPTEMPO,Mirai,North
2014-09-16T07:59:31Z,1410854371,2014,8,0,259.333,259.333,74.704,-162.95,1015.6,1.36,-999.0,yes,yes,no,300234060235320,UPTEMPO,PSC-UPTEMPO,Mirai,North
2014-09-16T09:00:00Z,1410858000,2014,9,0,259.375,259.375,74.707,-162.964,1015.5,1.36,-999.0,yes,yes,no,300234060235320,UPTEMPO,PSC-UPTEMPO,Mirai,North
2014-09-16T10:00:28Z,1410861629,2014,10,0,259.417,259.417,74.7106,-162.978,1015.3,1.24,-999.0,yes,yes,no,300234060235320,UPTEMPO,PSC-UPTEMPO,Mirai,North
2014-09-16T10:59:31Z,1410865171,2014,11,0,259.458,259.458,74.7144,-162.9908,1015.0,0.84,-999.0,yes,yes,no,300234060235320,UPTEMPO,PSC-UPTEMPO,Mirai,North
2014-09-16T12:00:00Z,1410868800,2014,12,0,259.5,259.5,74.7184,-163.004,1014.9,0.52,-999.0,yes,yes,no,300234060235320,UPTEMPO,PSC-UPTEMPO,Mirai,North
2014-09-16T13:00:28Z,1410872429,2014,13,0,259.542,259.542,74.723,-163.0158,1014.5,0.44,-999.0,yes,yes,no,300234060235320,UPTEMPO,PSC-UPTEMPO,Mirai,North
2014-09-16T13:59:31Z,1410875971,2014,14,0,259.583,259.583,74.7274,-163.0266,1014.3,0.36,-999.0,yes,yes,no,300234060235320,UPTEMPO,PSC-UPTEMPO,Mirai,North
2014-09-16T15:00:00Z,1410879600,2014,15,0,259.625,259.625,74.7316,-163.0374,1014.2,0.36,-999.0,yes,yes,no,300234060235320,UPTEMPO,PSC-UPTEMPO,Mirai,North
2014-09-16T16:00:28Z,1410883229,2014,16,0,259.667,259.667,74.7356,-163.0482,1014.0,0.38,-999.0,yes,yes,no,300234060235320,UPTEMPO,PSC-UPTEMPO,Mirai,North
2014-09-16T16:59:31Z,1410886771,2014,17,0,259.708,259.708,74.739,-163.0604,1013.6,0.48,-999.0,yes,yes,no,300234060235320,UPTEMPO,PSC-UPTEMPO,Mirai,North
2014-09-16T18:00:00Z,1410890400,2014,18,0,259.75,259.75,74.743,-163.0742,1013.8,0.4,-999.0,yes,yes,no,300234060235320,UPTEMPO,PSC-UPTEMPO,Mirai,North
2014-09-16T19:00:28Z,1410894029,2014,19,0,259.792,259.792,74.7474,-163.088,1013.7,0.48,-999.0,yes,yes,no,300234060235320,UPTEMPO,PSC-UPTEMPO,Mirai,North
2014-09-16T19:59:31Z,1410897571,2014,20,0,259.833,259.833,74.752,-163.0994,1013.7,0.4,-999.0,yes,yes,no,300234060235320,UPTEMPO,PSC-UPTEMPO,Mirai,North
2014-09-16T21:00:00Z,1410901200,2014,21,0,259.875,259.875,74.7568,-163.1108,1013.7,0.36,-999.0,yes,yes,no,300234060235320,UPTEMPO,PSC-UPTEMPO,Mirai,North
2014-09-16T22:00:28Z,1410904829,2014,22,0,259.917,259.917,74.7614,-163.1214,1013.6,0.5,-999.0,yes,yes,no,300234060235320,UPTEMPO,PSC-UPTEMPO,Mirai,North
2014-09-17T00:00:00Z,1410912000,2014,0,0,260.0,260.0,74.7714,-163.143,1013.2,0.52,-999.0,yes,yes,no,300234060235320,UPTEMPO,PSC-UPTEMPO,Mirai,North
2014-09-17T01:00:28Z,1410915629,2014,1,0,260.042,260.042,74.7764,-163.153,1013.1,0.52,-999.0,yes,yes,no,300234060235320,UPTEMPO,PSC-UPTEMPO,Mirai,North
2014-09-17T01:59:31Z,1410919171,2014,2,0,260.083,260.083,74.7812,-163.1622,1012.8,0.52,-999.0,yes,yes,no,300234060235320,UPTEMPO,PSC-UPTEMPO,Mirai,North
2014-09-17T03:00:00Z,1410922800,2014,3,0,260.125,260.125,74.7858,-163.1712,1012.5,0.52,-999.0,yes,yes,no,300234060235320,UPTEMPO,PSC-UPTEMPO,Mirai,North
2014-09-17T04:00:28Z,1410926429,2014,4,0,260.167,260.167,74.7898,-163.181,1012.4,0.52,-999.0,yes,yes,no,300234060235320,UPTEMPO,PSC-UPTEMPO,Mirai,North
2014-09-17T04:59:31Z,1410929971,2014,5,0,260.208,260.208,74.7936,-163.193,1012.2,0.52,-999.0,yes,yes,no,300234060235320,UPTEMPO,PSC-UPTEMPO,Mirai,North
2014-09-17T06:00:00Z,1410933600,2014,6,0,260.25,260.25,74.7978,-163.205,1012.2,0.5,-999.0,yes,yes,no,300234060235320,UPTEMPO,PSC-UPTEMPO,Mirai,North
2014-09-17T07:00:28Z,1410937229,2014,7,0,260.292,260.292,74.802,-163.2162,1012.1,0.5,-999.0,yes,yes,no,300234060235320,UPTEMPO,PSC-UPTEMPO,Mirai,North
2014-09-17T07:59:31Z,1410940771,2014,8,0,260.333,260.333,74.8062,-163.2258,1011.9,0.52,-999.0,yes,yes,no,300234060235320,UPTEMPO,PSC-UPTEMPO,Mirai,North
2014-09-17T09:00:00Z,1410944400,2014,9,0,260.375,260.375,74.8102,-163.2338,1011.9,0.48,-999.0,yes,yes,no,300234060235320,UPTEMPO,PSC-UPTEMPO,Mirai,North
2014-09-17T10:00:28Z,1410948029,2014,10,0,260.417,260.417,74.8134,-163.2422,1011.7,0.48,-999.0,yes,yes,no,300234060235320,UPTEMPO,PSC-UPTEMPO,Mirai,North
2014-09-17T10:59:31Z,1410951571,2014,11,0,260.458,260.458,74.8166,-163.2514,1011.5,0.52,-999.0,yes,yes,no,300234060235320,UPTEMPO,PSC-UPTEMPO,Mirai,North
2014-09-17T12:00:00Z,1410955200,2014,12,0,260.5,260.5,74.8194,-163.2602,1011.1,0.52,-999.0,yes,yes,no,300234060235320,UPTEMPO,PSC-UPTEMPO,Mirai,North
2014-09-17T13:00:28Z,1410958829,2014,13,0,260.542,260.542,74.822,-163.2694,1010.8,0.52,-999.0,yes,yes,no,300234060235320,UPTEMPO,PSC-UPTEMPO,Mirai,North
2014-09-17T13:59:31Z,1410962371,2014,14,0,260.583,260.583,74.8248,-163.28,1010.7,0.5,-999.0,yes,yes,no,300234060235320,UPTEMPO,PSC-UPTEMPO,Mirai,North
2014-09-17T15:00:00Z,1410966000,2014,15,0,260.625,260.625,74.8274,-163.2912,1010.5,0.5,-999.0,yes,yes,no,300234060235320,UPTEMPO,PSC-UPTEMPO,Mirai,North
2014-09-17T16:00:28Z,1410969629,2014,16,0,260.667,260.667,74.8298,-163.3026,1010.4,0.5,-999.0,yes,yes,no,300234060235320,UPTEMPO,PSC-UPTEMPO,Mirai,North
2014-09-17T16:59:31Z,1410973171,2014,17,0,260.708,260.708,74.8324,-163.314,1010.5,0.48,-999.0,yes,yes,no,300234060235320,UPTEMPO,PSC-UPTEMPO,Mirai,North
2014-09-17T18:00:00Z,1410976800,2014,18,0,260.75,260.75,74.8348,-163.325,1010.3,0.5,-999.0,yes,yes,no,300234060235320,UPTEMPO,PSC-UPTEMPO,Mirai,North
2014-09-17T19:00:28Z,1410980429,2014,19,0,260.792,260.792,74.8372,-163.3362,1010.2,0.48,-999.0,yes,yes,no,300234060235320,UPTEMPO,PSC-UPTEMPO,Mirai,North
2014-09-17T19:59:31Z,1410983971,2014,20,0,260.833,260.833,74.8392,-163.3464,1010.1,0.48,-999.0,yes,yes,no,300234060235320,UPTEMPO,PSC-UPTEMPO,Mirai,North
2014-09-17T21:00:00Z,1410987600,2014,21,0,260.875,260.875,74.8414,-163.3562,1010.2,0.5,-999.0,yes,yes,no,300234060235320,UPTEMPO,PSC-UPTEMPO,Mirai,North
2014-09-17T22:00:28Z,1410991229,2014,22,0,260.917,260.917,74.843,-163.3646,1010.2,0.5,-999.0,yes,yes,no,300234060235320,UPTEMPO,PSC-UPTEMPO,Mirai,North
2014-09-17T22:59:31Z,1410994771,2014,23,0,260.958,260.958,74.8444,-163.3736,1010.1,0.52,-999.0,yes,yes,no,300234060235320,UPTEMPO,PSC-UPTEMPO,Mirai,North
2014-09-18T00:00:00Z,1410998400,2014,0,0,261.0,261.0,74.8458,-163.3832,1010.0,0.52,-999.0,yes,yes,no,300234060235320,UPTEMPO,PSC-UPTEMPO,Mirai,North
2014-09-18T01:00:28Z,1411002029,2014,1,0,261.042,261.042,74.847,-163.3932,1009.9,0.5,-999.0,yes,yes,no,300234060235320,UPTEMPO,PSC-UPTEMPO,Mirai,North
2014-09-18T01:59:31Z,1411005571,2014,2,0,261.083,261.083,74.8484,-163.4024,1009.8,0.48,-999.0,yes,yes,no,300234060235320,UPTEMPO,PSC-UPTEMPO,Mirai,North
2014-09-18T03:00:00Z,1411009200,2014,3,0,261.125,261.125,74.8494,-163.4124,1010.1,0.48,-999.0,yes,yes,no,300234060235320,UPTEMPO,PSC-UPTEMPO,Mirai,North
2014-09-18T04:00:28Z,1411012829,2014,4,0,261.167,261.167,74.8506,-163.4224,1010.2,0.48,-999.0,yes,yes,no,300234060235320,UPTEMPO,PSC-UPTEMPO,Mirai,North
2014-09-18T04:59:31Z,1411016371,2014,5,0,261.208,261.208,74.852,-163.4328,1010.2,0.48,-999.0,yes,yes,no,300234060235320,UPTEMPO,PSC-UPTEMPO,Mirai,North
2014-09-18T06:00:00Z,1411020000,2014,6,0,261.25,261.25,74.8536,-163.4434,1010.2,0.48,-999.0,yes,yes,no,300234060235320,UPTEMPO,PSC-UPTEMPO,Mirai,North
2014-09-18T07:00:28Z,1411023629,2014,7,0,261.292,261.292,74.8552,-163.4536,1010.4,0.4,-999.0,yes,yes,no,300234060235320,UPTEMPO,PSC-UPTEMPO,Mirai,North
2014-09-18T07:59:31Z,1411027171,2014,8,0,261.333,261.333,74.8566,-163.4626,1010.4,0.44,-999.0,yes,yes,no,300234060235320,UPTEMPO,PSC-UPTEMPO,Mirai,North
2014-09-18T09:00:00Z,1411030800,2014,9,0,261.375,261.375,74.8576,-163.4722,1010.7,0.44,-999.0,yes,yes,no,300234060235320,UPTEMPO,PSC-UPTEMPO,Mirai,North
2014-09-18T10:00:28Z,1411034429,2014,10,0,261.417,261.417,74.8584,-163.4816,1010.8,0.52,-999.0,yes,yes,no,300234060235320,UPTEMPO,PSC-UPTEMPO,Mirai,North
2014-09-18T10:59:31Z,1411037971,2014,11,0,261.458,261.458,74.8598,-163.4912,1010.9,0.52,-999.0,yes,yes,no,300234060235320,UPTEMPO,PSC-UPTEMPO,Mirai,North
2014-09-18T12:00:00Z,1411041600,2014,12,0,261.5,261.5,74.8614,-163.5004,1010.8,0.56,-999.0,yes,yes,no,300234060235320,UPTEMPO,PSC-UPTEMPO,Mirai,North
2014-09-18T13:00:28Z,1411045229,2014,13,0,261.542,261.542,74.8632,-163.5092,1011.0,0.72,-999.0,yes,yes,no,300234060235320,UPTEMPO,PSC-UPTEMPO,Mirai,North
2014-09-18T13:59:31Z,1411048771,2014,14,0,261.583,261.583,74.8652,-163.5178,1011.1,0.52,-999.0,yes,yes,no,300234060235320,UPTEMPO,PSC-UPTEMPO,Mirai,North
2014-09-18T15:00:00Z,1411052400,2014,15,0,261.625,261.625,74.8672,-163.525,1011.0,0.6,-999.0,yes,yes,no,300234060235320,UPTEMPO,PSC-UPTEMPO,Mirai,North
2014-09-18T16:00:28Z,1411056029,2014,16,0,261.667,261.667,74.8692,-163.531,1011.3,0.6,-999.0,yes,yes,no,300234060235320,UPTEMPO,PSC-UPTEMPO,Mirai,North
2014-09-18T16:59:31Z,1411059571,2014,17,0,261.708,261.708,74.871,-163.5382,1011.4,0.6,-999.0,yes,yes,no,300234060235320,UPTEMPO,PSC-UPTEMPO,Mirai,North
2014-09-18T18:00:00Z,1411063200,2014,18,0,261.75,261.75,74.8726,-163.5444,1011.6,0.6,-999.0,yes,yes,no,300234060235320,UPTEMPO,PSC-UPTEMPO,Mirai,North
2014-09-18T19:00:28Z,1411066829,2014,19,0,261.792,261.792,74.8738,-163.5518,1011.7,0.48,-999.0,yes,yes,no,300234060235320,UPTEMPO,PSC-UPTEMPO,Mirai,North
2014-09-18T19:59:31Z,1411070371,2014,20,0,261.833,261.833,74.8752,-163.5594,1011.9,0.52,-999.0,yes,yes,no,300234060235320,UPTEMPO,PSC-UPTEMPO,Mirai,North
2014-09-18T21:00:00Z,1411074000,2014,21,0,261.875,261.875,74.8768,-163.5662,1012.0,0.52,-999.0,yes,yes,no,300234060235320,UPTEMPO,PSC-UPTEMPO,Mirai,North
2014-09-18T22:00:28Z,1411077629,2014,22,0,261.917,261.917,74.8784,-163.5736,1012.1,0.64,-999.0,yes,yes,no,300234060235320,UPTEMPO,PSC-UPTEMPO,Mirai,North
2014-09-18T22:59:31Z,1411081171,2014,23,0,261.958,261.958,74.8802,-163.5806,1012.5,0.68,-999.0,yes,yes,no,300234060235320,UPTEMPO,PSC-UPTEMPO,Mirai,North
2014-09-19T00:00:00Z,1411084800,2014,0,0,262.0,262.0,74.8818,-163.5864,1012.4,0.7,-999.0,yes,yes,no,300234060235320,UPTEMPO,PSC-UPTEMPO,Mirai,North
2014-09-19T01:00:28Z,1411088429,2014,1,0,262.042,262.042,74.8838,-163.5918,1012.6,0.68,-999.0,yes,yes,no,300234060235320,UPTEMPO,PSC-UPTEMPO,Mirai,North
2014-09-19T01:59:31Z,1411091971,2014,2,0,262.083,262.083,74.886,-163.5958,1012.6,0.68,-999.0,yes,yes,no,300234060235320,UPTEMPO,PSC-UPTEMPO,Mirai,North
2014-09-19T03:00:00Z,1411095600,2014,3,0,262.125,262.125,74.8882,-163.5996,1012.9,0.72,-999.0,yes,yes,no,300234060235320,UPTEMPO,PSC-UPTEMPO,Mirai,North
2014-09-19T04:00:28Z,1411099229,2014,4,0,262.167,262.167,74.89,-163.6052,1013.3,0.68,-999.0,yes,yes,no,300234060235320,UPTEMPO,PSC-UPTEMPO,Mirai,North
2014-09-19T04:59:31Z,1411102771,2014,5,0,262.208,262.208,74.8914,-163.6116,1013.6,0.6,-999.0,yes,yes,no,300234060235320,UPTEMPO,PSC-UPTEMPO,Mirai,North
2014-09-19T06:00:00Z,1411106400,2014,6,0,262.25,262.25,74.893,-163.6178,1013.9,0.48,-999.0,yes,yes,no,300234060235320,UPTEMPO,PSC-UPTEMPO,Mirai,North
2014-09-19T07:00:28Z,1411110029,2014,7,0,262.292,262.292,74.8948,-163.6246,1014.1,0.4,-999.0,yes,yes,no,300234060235320,UPTEMPO,PSC-UPTEMPO,Mirai,North
2014-09-19T07:59:31Z,1411113571,2014,8,0,262.333,262.333,74.8968,-163.6318,1014.2,0.4,-999.0,yes,yes,no,300234060235320,UPTEMPO,PSC-UPTEMPO,Mirai,North
2014-09-19T09:00:00Z,1411117200,2014,9,0,262.375,262.375,74.899,-163.6378,1014.2,0.44,-999.0,yes,yes,no,300234060235320,UPTEMPO,PSC-UPTEMPO,Mirai,North
2014-09-19T10:00:28Z,1411120829,2014,10,0,262.417,262.417,74.901,-163.642,1014.4,0.5,-999.0,yes,yes,no,300234060235320,UPTEMPO,PSC-UPTEMPO,Mirai,North